Regional Weather Roundup
Issued by NWS

Home | Current Version | Previous Version | Graphics & Text | Print | Product List | Glossary On
Versions: 1 2 3 4 5 6 7 8 9 10 11 12 13 14 15 16 17 18 19 20 21 22 23 24 25 26 27 28 29 30 31 32 33 34 35 36 37 38 39 40 41 42 43 44 45 46 47 48 49 50
000
ASUS43 KTOP 241408
RWRKS

WEATHER ROUNDUP FOR KANSAS
NATIONAL WEATHER SERVICE GOODLAND KS
900 AM CDT TUE MAY 24 2016

NOTE:  "FAIR" INDICATES FEW OR NO CLOUDS BELOW 12,000 FEET WITH NO
SIGNIFICANT WEATHER AND/OR OBSTRUCTIONS TO VISIBILITY.

KSZ001>006-013>018-027>032-041>047-241500-
NORTHWEST KANSAS

CITY           SKY/WX    TMP DP  RH WIND       PRES   REMARKS
GOODLAND       MOSUNNY   60  54  80 E16G22    29.92S
HAYS           CLOUDY    61  52  72 SE15      29.92F
HILL CITY      CLOUDY    61  57  87 E8        29.92R
RUSSELL        CLOUDY    59  56  89 SE17      29.91R
$$

KSZ061>065-074>080-084>089-241500-
SOUTHWEST KANSAS

CITY           SKY/WX    TMP DP  RH WIND       PRES   REMARKS
DODGE CITY     LGT RAIN  67  66  97 E17       29.90S FOG
ELKHART          N/A     64  60  87 W9          N/A
GARDEN CITY    PTSUNNY   69  63  81 SE13      29.86R
GREAT BEND     CLOUDY    63  52  67 E16G23    29.93R
LIBERAL        CLOUDY    73  64  73 SW17G23   29.84F
PRATT          DRIZZLE   61  59  94 E22G28    29.94R
$$

KSZ066>073-081>083-090>101-241500-
SOUTHEAST KANSAS

CITY           SKY/WX    TMP DP  RH WIND       PRES   REMARKS
CHANUTE        CLOUDY    67  63  87 N9        29.97R
COFFEYVILLE    CLOUDY    72  66  81 S3        29.95R
HUTCHINSON     CLOUDY    64  58  80 NE18      29.94F
MEDICINE LODGE   N/A     71  67  87 E12       29.90R
NEWTON         CLOUDY    63  54  72 NE10G22   30.01F
PARSONS        CLOUDY    71  67  87 S3        29.96R
WICHITA INTL   CLOUDY    68  64  87 NE14      29.95R
WICHITA JABRA  CLOUDY    65  62  90 NE8       29.96R
WINFIELD       PTSUNNY   72  67  84 E9        29.95R
$$

KSZ007>012-019>026-033>040-048>060-102>105-241500-
NORTHEAST KANSAS

CITY           SKY/WX    TMP DP  RH WIND       PRES   REMARKS
CONCORDIA      CLOUDY    61  57  87 SE13      29.91F
EMPORIA        LGT RAIN  63  58  83 W9        30.04R
LAWRENCE       PTSUNNY   65  62  90 MISG      29.94R
MANHATTAN      LGT RAIN  62  62 100 E10       29.95F
MARYSVILLE     RAIN      61  59  94 CALM      29.95F
OLATHE IND     PTSUNNY   67  63  87 CALM      29.95R
OLATHE EXE     MOSUNNY   64  63  96 S7        29.94R
SALINA         CLOUDY    63  60  90 SE9       29.96R
TOPEKA BILLARD CLOUDY    64  60  87 VRB5G20   29.98R
TOPEKA FORBES  CLOUDY    66  61  84 W10       30.01R
$$



USA.gov is the U.S. government's official web portal to all federal, state and local government web resources and services.